Location: Hochstatterhof
(48.7256°N, 10.3487°E)
Time: 03:09:46
(UTC+00:00)

ATLAS 3B R/B - Pass Details

Date: 26 September 2023
Orbit: 954 x 1241 km, 63.8° (Epoch: 01 December)

Event Time Altitude Azimuth Distance (km) Brightness Sun altitude
Rises 01:54:52 0° 316° (NW) 4,083 5.7 -30.7°
Reaches altitude 10° 01:57:43 10° 322° (NW) 3,150 5.1 -30.4°
Maximum altitude 02:05:04 48° 35° (NE) 1,578 3.8 -29.4°
Drops below altitude 10° 02:12:33 10° 109° (ESE) 3,207 5.6 -28.4°
Sets 02:15:28 0° 115° (ESE) 4,163 6.2 -28.0°
